Location: Unspecified
(0.0000°N, 0.0000°E)
Time: 09:36:24
(UTC+00:00)

HTV-X1 - Visible Passes

Search period start: 10 April 2026 00:00
Search period end: 20 April 2026 00:00
Orbit: 463 x 473 km, 51.6° (Epoch: 10 April)

Date Brightness Start Highest point End Pass type
(mag) Time Alt. Az. Time Alt. Az. Time Alt. Az.
10 Apr ? 05:01:24 10° SSW 05:04:46 36° SE 05:08:09 10° ENE visible
10 Apr ? 18:26:10 10° WSW 18:26:31 10° SW 18:26:51 10° SW visible
11 Apr ? 04:31:15 19° SSE 04:32:52 27° SE 04:36:00 10° ENE visible
12 Apr ? 04:01:43 19° ESE 04:01:43 19° ESE 04:03:45 10° ENE visible
12 Apr ? 05:36:27 10° W 05:38:38 15° NW 05:40:48 10° NNW visible
13 Apr ? 05:06:07 19° WNW 05:06:42 20° NW 05:09:24 10° N visible
14 Apr ? 04:36:20 19° NNW 04:36:20 19° NNW 04:37:50 10° N visible
